Location: Ettringen
(48.1054°N, 10.6545°E)
Time: 22:01:58
(UTC+00:00)

USA 215 - Pass Details

Date: 18 November 2025
Orbit: 1101 x 1106 km, 123.0° (Epoch: 02 December)

Event Time Altitude Azimuth Distance (km) Brightness Sun altitude
Rises 17:45:02 0° 151° (SSE) 3,909 5.9 -21.3°
Reaches altitude 10° 17:47:40 10° 159° (SSE) 2,955 5.3 -21.7°
Maximum altitude 17:53:46 41° 228° (SW) 1,553 4.4 -22.7°
Drops below altitude 10° 17:59:53 10° 297° (WNW) 2,971 6.3 -23.8°
Sets 18:02:34 0° 304° (NW) 3,933 7.0 -24.2°
